Weather History for Jordan, MT

Change the Weather History Date:

Saturday, August 3, 2013

  Actual Average Record
Temperature  
Mean Temperature 66 °F 72 °F  
Max Temperature 82 °F 88 °F 107 °F (1934)
Min Temperature 49 °F 56 °F 36 °F (1978)
Degree Days  
Heating Degree Days 0 0  
Month to date heating degree days 3 0  
Since 1 June heating degree days 104 150  
Since 1 July heating degree days 9 25  
Cooling Degree Days 1 7  
Month to date cooling degree days 3 21  
Year to date cooling degree days 252 252  
Since 1 June cooling degree days 240 246  
Growing Degree Days 14 (Base 50)    
Moisture  
Dew Point 56 °F    
Average Humidity 73    
Maximum Humidity 100    
Minimum Humidity 45    
Precipitation  
Precipitation 0.02 in 0.04 in 0.85 in (1998)
Month to date precipitation 0.78 0.13  
Year to date precipitation 13.64 8.86  
Snow  
Snow 0.00 in - - ()
Month to date snowfall 0.0  
Since 1 June snowfall 0.0  
Since 1 July snowfall 0.0  
Snow Depth 0.00 in    
Sea Level Pressure  
Sea Level Pressure 30.08 in    
Wind  
Wind Speed 6 mph (ENE)    
Max Wind Speed 25 mph    
Max Gust Speed 31 mph    
T = Trace of Precipitation, MM = Missing Value Source: NWS Daily Summary

Daily Weather History Graph

Daily Weather History Graph

Search for Another Location

Airport:

Trip Planner

Search our weather history database for the weather conditions in past years. The results will help you decide how hot, cold, wet, or windy it might be!

Date:

Astronomy

Aug. 03, 2013 Rise Set
Actual Time 5:49 AM MDT 8:37 PM MDT
Civil Twilight 5:13 AM MDT 9:13 PM MDT
Nautical Twilight 4:28 AM MDT 9:58 PM MDT
Astronomical Twilight 3:34 AM MDT 10:51 PM MDT
Moon 2:58 AM MDT (8/3) 6:24 PM MDT (8/3)
Length of Visible Light 15h 59m
Length of Day
14h 48m
Waning Crescent, 9% of the Moon is Illuminated
Aug 3
Waning Crescent
Aug 6
New
Aug 14
First Quarter
Aug 20
Full
Aug 28
Last Quarter

Hourly Weather History & Observations

Time (MDT) Temp. Dew Point Humidity Pressure Visibility Wind Dir Wind Speed Gust Speed Precip Events Conditions
12:48 AM 55.9 °F 53.1 °F 90% 30.11 in - NE 5.8 mph - N/A   Unknown
1:48 AM 55.0 °F 53.1 °F 93% 30.11 in - North 6.9 mph - N/A   Unknown
2:48 AM 53.1 °F 52.0 °F 96% 30.12 in - Calm Calm - N/A   Unknown
3:48 AM 52.0 °F 51.1 °F 97% 30.10 in - North 3.5 mph - N/A   Unknown
4:48 AM 51.1 °F 50.0 °F 96% 30.11 in - Calm Calm - N/A   Unknown
5:48 AM 50.0 °F 48.9 °F 96% 30.12 in - NW 4.6 mph - N/A   Unknown
6:48 AM 52.0 °F 50.0 °F 93% 30.13 in - Calm Calm - N/A   Unknown
7:48 AM 57.0 °F 54.0 °F 89% 30.14 in - East 4.6 mph - N/A   Unknown
8:48 AM 59.0 °F 55.9 °F 90% 30.15 in - Calm Calm - N/A   Unknown
9:48 AM 64.0 °F 57.0 °F 78% 30.13 in - Calm Calm - N/A   Unknown
10:48 AM 68.0 °F 59.0 °F 73% 30.13 in - East 5.8 mph - N/A   Unknown
11:48 AM 72.0 °F 60.1 °F 66% 30.12 in - East 8.1 mph - N/A   Unknown
12:48 PM 73.0 °F 60.1 °F 64% 30.10 in - East 12.7 mph - N/A   Unknown
1:48 PM 75.0 °F 60.1 °F 60% 30.08 in - ESE 10.4 mph - N/A   Unknown
2:48 PM 77.0 °F 59.0 °F 54% 30.06 in - East 12.7 mph - N/A   Unknown
3:48 PM 79.0 °F 57.0 °F 47% 30.03 in - East 11.5 mph - N/A   Unknown
4:48 PM 78.1 °F 55.9 °F 46% 29.98 in - ESE 16.1 mph 21.9 mph N/A   Unknown
5:48 PM 77.0 °F 57.0 °F 50% 29.97 in - East 11.5 mph - N/A   Unknown
6:24 PM 64.4 °F 60.8 °F 88% 30.03 in - NNE 20.7 mph 31.1 mph N/A   Unknown
6:48 PM 64.0 °F 60.1 °F 87% 30.07 in - West 10.4 mph 21.9 mph 0.01 in   Unknown
7:06 PM 64.4 °F 60.8 °F 88% 30.05 in - North 11.5 mph - 0.01 in   Unknown
7:48 PM 64.0 °F 60.1 °F 87% 30.03 in - North 13.8 mph - 0.01 in   Unknown
8:48 PM 62.1 °F 60.1 °F 93% 30.04 in - NE 8.1 mph - N/A   Unknown
9:48 PM 61.0 °F 59.0 °F 93% 30.07 in - ENE 6.9 mph - N/A   Unknown
10:48 PM 59.0 °F 57.0 °F 93% 30.07 in - ENE 4.6 mph - N/A   Unknown
11:48 PM 57.9 °F 57.0 °F 97% 30.07 in - Calm Calm - N/A   Unknown